Weather History for Monticello, NY

Change the Weather History Date:

Sunday, May 11, 2014

  Actual Average Record
Temperature  
Mean Temperature 60 °F -  
Max Temperature 71 °F 63 °F 82 °F (2001)
Min Temperature 50 °F 42 °F 35 °F (1999)
Degree Days  
Heating Degree Days 4    
Growing Degree Days 10 (Base 50)    
Moisture  
Dew Point 37 °F    
Average Humidity 43    
Maximum Humidity 77    
Minimum Humidity 22    
Precipitation  
Precipitation 0.00 in - - ()
Sea Level Pressure  
Sea Level Pressure 30.05 in    
Wind  
Wind Speed 9 mph (WNW)    
Max Wind Speed 18 mph    
Max Gust Speed 26 mph    
Visibility 10 miles    
Events      
Averages and records for this station are not official NWS values.
T = Trace of Precipitation, MM = Missing Value Source: NWS Daily Summary

Daily Weather History Graph

Daily Weather History Graph

Search for Another Location

Airport:

Trip Planner

Search our weather history database for the weather conditions in past years. The results will help you decide how hot, cold, wet, or windy it might be!

Date:

Astronomy

May. 11, 2014 Rise Set
Actual Time 5:43 AM EDT 8:08 PM EDT
Civil Twilight 5:12 AM EDT 8:39 PM EDT
Nautical Twilight 4:33 AM EDT 9:18 PM EDT
Astronomical Twilight 3:50 AM EDT 10:01 PM EDT
Moon 4:58 PM EDT (5/11) 3:50 AM EDT (5/11)
Length of Visible Light 15h 26m
Length of Day
14h 24m
Waxing Gibbous, 89% of the Moon is Illuminated
May 11
Waxing Gibbous
May 14
Full
May 21
Last Quarter
May 28
New
Jun 5
First Quarter

Hourly Weather History & Observations

Time (EDT) Temp. Dew Point Humidity Pressure Visibility Wind Dir Wind Speed Gust Speed Precip Events Conditions
12:15 AM 60.8 °F 53.6 °F 77% 29.92 in 10.0 mi WNW 10.4 mph - N/A   Mostly Cloudy
12:35 AM 59.0 °F 51.8 °F 77% 29.93 in 10.0 mi NW 11.5 mph - N/A   Partly Cloudy
12:55 AM 59.0 °F 42.8 °F 55% 29.94 in 10.0 mi NW 9.2 mph - N/A   Scattered Clouds
1:15 AM 59.0 °F 42.8 °F 55% 29.94 in 10.0 mi NW 6.9 mph - N/A   Scattered Clouds
1:35 AM 57.2 °F 39.2 °F 51% 29.94 in 10.0 mi WNW 8.1 mph - N/A   Mostly Cloudy
1:55 AM 57.2 °F 37.4 °F 48% 29.94 in 10.0 mi WNW 6.9 mph - N/A   Overcast
2:15 AM 57.2 °F 37.4 °F 48% 29.94 in 10.0 mi WNW 6.9 mph - N/A   Mostly Cloudy
2:35 AM 55.4 °F 39.2 °F 54% 29.95 in 10.0 mi West 5.8 mph - N/A   Scattered Clouds
2:55 AM 55.4 °F 37.4 °F 51% 29.95 in 10.0 mi West 5.8 mph - N/A   Mostly Cloudy
3:15 AM 55.4 °F 39.2 °F 54% 29.96 in 10.0 mi West 4.6 mph - N/A   Partly Cloudy
3:35 AM 53.6 °F 39.2 °F 58% 29.97 in 10.0 mi WSW 4.6 mph - N/A   Scattered Clouds
3:55 AM 53.6 °F 39.2 °F 58% 29.97 in 10.0 mi WSW 4.6 mph - N/A   Overcast
4:15 AM 53.6 °F 39.2 °F 58% 29.97 in 10.0 mi West 4.6 mph - N/A   Overcast
4:35 AM 51.8 °F 37.4 °F 58% 29.97 in 10.0 mi West 5.8 mph - N/A   Mostly Cloudy
4:55 AM 51.8 °F 37.4 °F 58% 29.98 in 10.0 mi West 5.8 mph - N/A   Clear
5:15 AM 51.8 °F 37.4 °F 58% 29.98 in 10.0 mi West 8.1 mph - N/A   Clear
5:35 AM 50.0 °F 37.4 °F 62% 29.99 in 10.0 mi West 6.9 mph - N/A   Clear
5:55 AM 50.0 °F 37.4 °F 62% 30.00 in 10.0 mi West 6.9 mph - N/A   Clear
6:15 AM 50.0 °F 37.4 °F 62% 30.00 in 10.0 mi West 6.9 mph - N/A   Clear
6:35 AM 50.0 °F 37.4 °F 62% 30.02 in 10.0 mi WNW 8.1 mph - N/A   Clear
6:55 AM 51.8 °F 39.2 °F 62% 30.03 in 10.0 mi West 9.2 mph - N/A   Clear
7:15 AM 53.6 °F 39.2 °F 58% 30.04 in 10.0 mi WNW 8.1 mph - N/A   Clear
7:35 AM 53.6 °F 39.2 °F 58% 30.05 in 10.0 mi WNW 9.2 mph 16.1 mph N/A   Clear
7:55 AM 55.4 °F 39.2 °F 54% 30.07 in 10.0 mi WNW 11.5 mph - N/A   Clear
8:15 AM 55.4 °F 39.2 °F 54% 30.07 in 10.0 mi WNW 12.7 mph 16.1 mph N/A   Clear
8:35 AM 57.2 °F 41.0 °F 55% 30.08 in 10.0 mi WNW 10.4 mph 18.4 mph N/A   Clear
8:55 AM 57.2 °F 42.8 °F 59% 30.07 in 10.0 mi NW 12.7 mph 20.7 mph N/A   Clear
9:15 AM 60.8 °F 42.8 °F 52% 30.07 in 10.0 mi WNW 10.4 mph 16.1 mph N/A   Clear
9:35 AM 60.8 °F 42.8 °F 52% 30.07 in 10.0 mi NW 11.5 mph 16.1 mph N/A   Clear
9:55 AM 62.6 °F 42.8 °F 48% 30.06 in 10.0 mi NW 10.4 mph - N/A   Clear
10:15 AM 62.6 °F 39.2 °F 42% 30.07 in 10.0 mi NNW 8.1 mph 16.1 mph N/A   Clear
10:35 AM 62.6 °F 41.0 °F 45% 30.08 in 10.0 mi West 13.8 mph 18.4 mph N/A   Clear
10:55 AM 64.4 °F 39.2 °F 40% 30.08 in 10.0 mi West 16.1 mph 20.7 mph N/A   Clear
11:15 AM 64.4 °F 37.4 °F 37% 30.10 in 10.0 mi WNW 18.4 mph 23.0 mph N/A   Clear
11:35 AM 64.4 °F 39.2 °F 40% 30.11 in 10.0 mi WNW 11.5 mph 21.9 mph N/A   Clear
11:55 AM 64.4 °F 39.2 °F 40% 30.10 in 10.0 mi WNW 15.0 mph 21.9 mph N/A   Clear
12:15 PM 66.2 °F 35.6 °F 32% 30.10 in 10.0 mi West 18.4 mph 23.0 mph N/A   Clear
12:35 PM 66.2 °F 35.6 °F 32% 30.09 in 10.0 mi WNW 17.3 mph 26.5 mph N/A   Clear
1:15 PM 66.2 °F 35.6 °F 32% 30.10 in 10.0 mi West 13.8 mph 21.9 mph N/A   Clear
1:35 PM 68.0 °F 33.8 °F 28% 30.09 in 10.0 mi WNW 17.3 mph 21.9 mph N/A   Clear
1:55 PM 69.8 °F 33.8 °F 27% 30.09 in 10.0 mi West 12.7 mph 24.2 mph N/A   Clear
2:15 PM 69.8 °F 33.8 °F 27% 30.09 in 10.0 mi WNW 13.8 mph 19.6 mph N/A   Clear
2:35 PM 69.8 °F 30.2 °F 23% 30.10 in 10.0 mi WNW 11.5 mph 21.9 mph N/A   Clear
2:55 PM 69.8 °F 33.8 °F 27% 30.09 in 10.0 mi WNW 12.7 mph 25.3 mph N/A   Clear
3:15 PM 71.6 °F 33.8 °F 25% 30.09 in 10.0 mi WNW 16.1 mph 23.0 mph N/A   Clear
3:35 PM 71.6 °F 33.8 °F 25% 30.08 in 10.0 mi NNW 15.0 mph 19.6 mph N/A   Clear
3:55 PM 71.6 °F 32.0 °F 23% 30.08 in 10.0 mi NW 12.7 mph 21.9 mph N/A   Clear
4:15 PM 71.6 °F 32.0 °F 23% 30.07 in 10.0 mi NW 13.8 mph 23.0 mph N/A   Clear
4:35 PM 71.6 °F 33.8 °F 25% 30.06 in 10.0 mi NNW 13.8 mph 17.3 mph N/A   Clear
4:55 PM 71.6 °F 33.8 °F 25% 30.07 in 10.0 mi WNW 13.8 mph 19.6 mph N/A   Clear
5:15 PM 71.6 °F 30.2 °F 22% 30.08 in 10.0 mi WNW 13.8 mph 20.7 mph N/A   Clear
5:35 PM 71.6 °F 32.0 °F 23% 30.08 in 10.0 mi WNW 12.7 mph 18.4 mph N/A   Clear
5:55 PM 71.6 °F 30.2 °F 22% 30.09 in 10.0 mi WNW 15.0 mph 19.6 mph N/A   Clear
6:15 PM 71.6 °F 32.0 °F 23% 30.09 in 10.0 mi WNW 12.7 mph 19.6 mph N/A   Clear
6:35 PM 69.8 °F 30.2 °F 23% 30.09 in 10.0 mi West 10.4 mph - N/A   Clear
6:55 PM 69.8 °F 30.2 °F 23% 30.09 in 10.0 mi WNW 9.2 mph 18.4 mph N/A   Clear
7:15 PM 69.8 °F 32.0 °F 25% 30.09 in 10.0 mi NW 5.8 mph - N/A   Clear
7:35 PM 66.2 °F 30.2 °F 26% 30.10 in 10.0 mi NW 6.9 mph - N/A   Clear
7:55 PM 64.4 °F 32.0 °F 30% 30.10 in 10.0 mi NNW 4.6 mph - N/A   Clear
8:15 PM 64.4 °F 30.2 °F 28% 30.10 in 10.0 mi West 3.5 mph - N/A   Clear
8:35 PM 64.4 °F 30.2 °F 28% 30.11 in 10.0 mi SW 4.6 mph - N/A   Clear
8:55 PM 64.4 °F 30.2 °F 28% 30.11 in 10.0 mi WSW 3.5 mph - N/A   Clear
9:15 PM 60.8 °F 32.0 °F 34% 30.12 in 10.0 mi SW 3.5 mph - N/A   Clear
9:35 PM 59.0 °F 32.0 °F 36% 30.11 in 10.0 mi Calm Calm - N/A   Clear
9:55 PM 59.0 °F 33.8 °F 39% 30.12 in 10.0 mi Calm Calm - N/A   Clear
10:15 PM 57.2 °F 33.8 °F 41% 30.12 in 10.0 mi Calm Calm - N/A   Clear
10:35 PM 53.6 °F 37.4 °F 54% 30.12 in 10.0 mi Calm Calm - N/A   Clear
10:55 PM 53.6 °F 39.2 °F 58% 30.11 in 10.0 mi Calm Calm - N/A   Clear
11:15 PM 53.6 °F 37.4 °F 54% 30.11 in 10.0 mi Calm Calm - N/A   Clear
11:35 PM 51.8 °F 39.2 °F 62% 30.11 in 10.0 mi Calm Calm - N/A   Clear
11:55 PM 51.8 °F 39.2 °F 62% 30.12 in 10.0 mi Calm Calm - N/A   Clear